Home > Weather > Ajaccio > Past weeks

Flag for France Past Weather in Ajaccio, Corsica, France — Yesterday and Last 2 Weeks

Now
84 °F

Sunny.


Feels Like: 87 °F
Forecast: 69 / 82 °F
Wind: 13 mph from Southwest

Location: Ajaccio Airport

Current Time: Aug 26, 2016 at 2:22:42 PM

Latest Report: Aug 26, 2016 at 1:30 PM


Visibility: 10 mi

Pressure: 30.04 "Hg

Humidity: 55%

Dew Point: 66 °F

Location of AjaccioLocation

Past Weather in Ajaccio — Graph

°F

Ajaccio Temperature Yesterday

Maximum temperature yesterday: 84 °F (at 2:00 PM)
Minimum temperature yesterday: 63 °F (at 5:00 AM)
Average temperature yesterday: 74 °F

High & Low Weather Summary for the Past Weeks

 TemperatureHumidityPressure
High86 °F (Aug 15, 2:30 PM)88% (Aug 18, 11:30 PM)30.21 "Hg (Aug 18, 11:30 PM)
Low59 °F (Aug 22, 7:00 AM)37% (Aug 15, 8:00 PM)29.86 "Hg (Aug 18, 3:30 AM)
Average74 °F67%30.04 "Hg
* Reported Aug 11 1:00 PM — Aug 26 1:00 PM, Ajaccio, Weather by CustomWeather, © 2016

Note: Actual official high and low records may vary slightly from our data, if they occured in-between our weather recording intervals... More about our weather records

Advertising

Ajaccio Weather History for the Previous 24 Hours

Scroll right to see more
 ConditionsComfort  
Time TempWeatherWind HumidityBarometerVisibility
1:00 PM
Fri, Aug 26
82 °FSunny.10 mph58%30.04 "Hg10 mi
12:30 PM82 °FSunny.9 mph58%30.07 "Hg10 mi
12:00 PM82 °FSunny.8 mph55%30.07 "Hg10 mi
11:30 AM82 °FSunny.8 mph55%30.07 "Hg10 mi
11:00 AM81 °FSunny.6 mph54%30.07 "Hg10 mi
10:30 AM81 °FSunny.6 mph51%30.07 "Hg10 mi
10:00 AM81 °FSunny.5 mph45%30.04 "Hg10 mi
9:30 AM79 °FSunny.No wind48%30.04 "Hg10 mi
9:00 AM75 °FSunny.3 mph57%30.04 "Hg10 mi
8:30 AM70 °FSunny.6 mph64%30.04 "Hg10 mi
8:00 AM66 °FSunny.6 mph73%30.04 "Hg10 mi
7:30 AM63 °FClear.7 mph83%30.04 "Hg10 mi
7:00 AM63 °FClear.8 mph77%30.04 "Hg10 mi
6:30 AM63 °FClear.8 mph83%30.04 "Hg10 mi
6:00 AM63 °FClear.7 mph83%30.04 "Hg10 mi
5:30 AM63 °FClear.5 mph83%30.04 "Hg10 mi
5:00 AM64 °FClear.5 mph78%30.04 "Hg10 mi
4:30 AM64 °FClear.6 mph78%30.01 "Hg10 mi
4:00 AM64 °FClear.7 mph78%30.01 "Hg10 mi
3:30 AM64 °FClear.6 mph83%30.01 "Hg10 mi
3:00 AM66 °FClear.7 mph78%30.04 "Hg10 mi
2:30 AM64 °FClear.7 mph83%30.04 "Hg10 mi
2:00 AM66 °FClear.7 mph78%30.04 "Hg10 mi
1:30 AM66 °FClear.5 mph83%30.04 "Hg10 mi
1:00 AM68 °FClear.3 mph78%30.04 "Hg10 mi
12:30 AM68 °FClear.3 mph78%30.04 "Hg10 mi
12:00 AM68 °FClear.5 mph78%30.04 "Hg10 mi
11:30 PM
Thu, Aug 25
70 °FClear.6 mph73%30.04 "Hg10 mi
11:00 PM70 °FClear.5 mph78%30.04 "Hg10 mi
10:30 PM70 °FClear.6 mph73%30.04 "Hg10 mi
10:00 PM73 °FClear.5 mph74%30.04 "Hg10 mi
9:30 PM73 °FClear.3 mph74%30.01 "Hg10 mi
9:00 PM75 °FSunny.2 mph69%30.01 "Hg10 mi
8:30 PM75 °FSunny.2 mph69%30.01 "Hg10 mi
8:00 PM77 °FSunny.5 mph74%30.01 "Hg10 mi
7:30 PM79 °FSunny.6 mph74%30.01 "Hg10 mi
7:00 PM79 °FSunny.8 mph74%30.01 "Hg10 mi
6:30 PM81 °FSunny.8 mph70%30.01 "Hg10 mi
6:00 PM81 °FPassing clouds.9 mph70%30.01 "HgN/A
5:30 PM82 °FPassing clouds.10 mph66%30.01 "HgN/A
5:00 PM82 °FPassing clouds.12 mph66%30.01 "HgN/A
4:30 PM82 °FPassing clouds.12 mph66%30.01 "HgN/A
4:00 PM82 °FPassing clouds.10 mph66%30.01 "HgN/A
3:30 PM82 °FPassing clouds.12 mph66%30.04 "HgN/A
3:00 PM82 °FPassing clouds.12 mph62%30.04 "HgN/A
2:30 PM84 °FSunny.10 mph58%30.04 "Hg10 mi
2:00 PM84 °FSunny.10 mph58%30.04 "Hg10 mi
Weather by CustomWeather, © 2016

See weather overviewHow to use our weather pages